Regional Weather Roundup
Issued by NWS State College, PA

Home | Current Version | Previous Version | Text Only | Print | Product List | Glossary On
Versions: 1 2 3 4 5 6 7 8 9 10 11 12 13 14 15 16 17 18 19 20 21 22 23 24 25 26 27 28 29 30 31 32 33 34 35 36 37 38 39 40 41 42 43 44 45 46 47 48 49 50
000
ASUS41 KCTP 221210
RWRCTP

REGIONAL WEATHER ROUNDUP
NATIONAL WEATHER SERVICE STATE COLLEGE PA
800 AM EDT MON SEP 22 2014

Note: "fair" indicates few or no clouds below 12,000 feet with no
significant weather and/or obstructions to visibility.

* = STATION THAT DOES NOT REPORT PRECIPITATION /E.G. RAIN...SNOW...ETC/
    THUNDER OR FOG.

PAZ002>004-007>009-013>016-020>023-029>032-221300-
WESTERN PENNSYLVANIA

CITY           SKY/WX    TMP DP  RH WIND       PRES   REMARKS
ERIE           CLOUDY    54  41  61 N15G29    30.05R
MEADVILLE      CLOUDY    48  45  89 NW6       30.05R
FRANKLIN*      CLOUDY    46  43  87 NW6       30.06R
NEW CASTLE     NOT AVBL
BEAVER COUNTY  CLOUDY    50  45  81 W6        30.07R
BUTLER*        CLOUDY    52  43  71 NW8G16    30.08R
PITTSBURGH INT CLOUDY    52  44  74 NW13      30.07R
PITTSBURGH     CLOUDY    53  40  61 NW8       30.05R
INDIANA*       FOG       50  48  93 NW8       30.08R VSB 1
LATROBE        MOCLDY    54  46  76 W12       30.07R
WASHINGTON CO* CLOUDY    50  45  81 N9G16     30.08R
$$

PAZ004>006-010>012-017>019-024>028-033>037-041-042-045-046-049>053-221300-
CENTRAL PENNSYLVANIA

CITY           SKY/WX    TMP DP  RH WIND       PRES   REMARKS
BRADFORD       CLOUDY    46  44  93 W9        29.98R FOG
DUBOIS         CLOUDY    48  43  82 NW10      30.01R
CLEARFIELD     CLOUDY    50  46  86 W12       30.01R
JOHNSTOWN      CLOUDY    48  44  86 NW14G21   30.02R
ALTOONA        CLOUDY    52  48  86 NW8G21    30.00R
STATE COLLEGE  PTSUNNY   52  45  76 NW7       29.98R
WILLIAMSPORT   CLOUDY    56  48  74 W10       29.92R
SELINSGROVE    CLOUDY    58  47  66 NW10G20   29.93R
FT INDIANTOWN  SUNNY     60  49  69 W10G23    29.92R
CAPITAL CITY   SUNNY     60  45  57 NW18G28   29.93R
HARRISBURG     SUNNY     61  47  59 NW22G31   29.92R
YORK           SUNNY     59  48  67 W6        29.94R
$$

PAZ038>040-043-044-047-048-054-055-060>062-067>071-221300-
EASTERN PENNSYLVANIA

CITY           SKY/WX    TMP DP  RH WIND       PRES   REMARKS
SCRANTON       CLOUDY    58  50  75 W13       29.87R
MOUNT POCONO     N/A     54  50  87 MISG      29.85R
ALLENTOWN      SUNNY     61  49  64 W6        29.85R
QUAKERTOWN*    SUNNY     61  50  67 W10G16    29.87R
READING        SUNNY     61  50  67 W10       29.87R
LANCASTER      SUNNY     58  49  72 W10       29.91R
COATESVILLE    SUNNY     57  50  77 NW13      29.90R
POTTSTOWN      SUNNY     60  50  69 W7        29.89R
BLUE BELL      SUNNY     63  52  67 W6        29.85R
DOYLESTOWN     SUNNY     60  50  69 NW12      29.85R
WILLOW GROVE   NOT AVBL
NORTH PHILA    SUNNY     65  48  54 W13       29.87R
PHILADELPHIA   MOSUNNY   64  50  60 W13       29.88R
$$



USA.gov is the U.S. government's official web portal to all federal, state and local government web resources and services.